VINASAT-1

Last updated on Sun Dec 07 2025 00:02:46 GMT+0000 (Coordinated Universal Time)

1 32767U 08018A 25340.56572541 -.00000321 00000+0 00000+0 0 9996 2 32767 0.0094 333.4960 0002317 296.4394 141.2807 1.00270940 64655
UTC large
Height (km)
Speed (km/s)
/
Latitude / Longitude
Inclination (degrees)
Orbital Period (minutes)
Azimuth
Elevation
Range (km)
Doppler Factor

Next 0 passes for location: London (51.5072 / 0.1276)

Sorry there are no passes over London.